When you browse on this site, cookies collect data to enhance your experience and personalize the content and advertising you see.
Visit our Privacy Policy to learn more. By continuing to use the site, you agree to this use of cookies and data.
  • In Lithuania
  • List of Countries
  • For 7 days
  • Water Temperature
  • Weather Map
  • Weather Widgets
  • user-avatar
    Login

    Hourly Weather Mbandaka

    Today, 22 November, Friday

    Time Temperature Precipitation Wind Pressure Humidity
    00:00 +24°C° 0.1 mm 1 mps 730 mmHg 98%
    01:00 +24°C° 0 mm 1 mps 730 mmHg 98%
    02:00 +23°C° 0.2 mm 1 mps 730 mmHg 98%
    03:00 +23°C° 0.2 mm 1 mps 730 mmHg 98%
    04:00 +23°C° 0.2 mm 1 mps 730 mmHg 98%
    05:00 +23°C° 0.4 mm 1 mps 730 mmHg 98%
    06:00 +24°C° 0.4 mm 1 mps 731 mmHg 97%
    07:00 +24°C° 0 mm 1 mps 731 mmHg 97%
    08:00 +25°C° 0 mm 1 mps 731 mmHg 93%
    09:00 +26°C° 0 mm 1 mps 731 mmHg 89%
    10:00 +26°C° 0 mm 1 mps 732 mmHg 85%
    11:00 +27°C° 0.3 mm 1 mps 731 mmHg 85%
    12:00 +27°C° 0.3 mm 1 mps 731 mmHg 85%
    13:00 +27°C° 0.3 mm 1 mps 730 mmHg 84%
    14:00 +27°C° 0.3 mm 1 mps 730 mmHg 86%
    15:00 +27°C° 0.3 mm 1 mps 729 mmHg 87%
    16:00 +26°C° 0.3 mm 1 mps 729 mmHg 89%
    17:00 +26°C° 0.5 mm 1 mps 729 mmHg 91%
    18:00 +25°C° 0.5 mm 1 mps 730 mmHg 94%
    19:00 +25°C° 0.5 mm 1 mps 731 mmHg 96%
    20:00 +24°C° 0.2 mm 1 mps 731 mmHg 96%
    21:00 +24°C° 0.2 mm 1 mps 732 mmHg 97%
    22:00 +24°C° 0.2 mm 1 mps 732 mmHg 98%
    23:00 +24°C° 0.1 mm 1 mps 732 mmHg 97%

    Tomorrow, 23 November, Saturday

    Time Temperature Precipitation Wind Pressure Humidity
    00:00 +23°C° 0.1 mm 2 mps 732 mmHg 97%
    01:00 +23°C° 0.1 mm 2 mps 731 mmHg 97%
    02:00 +23°C° 0 mm 1 mps 731 mmHg 97%
    03:00 +23°C° 0 mm 1 mps 731 mmHg 98%
    04:00 +23°C° 0 mm 1 mps 731 mmHg 98%
    05:00 +23°C° 0 mm 1 mps 731 mmHg 97%
    06:00 +23°C° 0 mm 1 mps 732 mmHg 96%
    07:00 +24°C° 0 mm 1 mps 733 mmHg 95%
    08:00 +24°C° 0 mm 1 mps 732 mmHg 91%
    09:00 +25°C° 0 mm 1 mps 732 mmHg 87%
    10:00 +26°C° 0 mm 1 mps 732 mmHg 83%
    11:00 +27°C° 0 mm 1 mps 731 mmHg 74%
    12:00 +29°C° 0 mm 1 mps 731 mmHg 66%
    13:00 +31°C° 0 mm 1 mps 730 mmHg 57%
    14:00 +30°C° 0 mm 2 mps 730 mmHg 59%
    15:00 +30°C° 0 mm 2 mps 729 mmHg 61%
    16:00 +29°C° 0 mm 2 mps 729 mmHg 62%
    17:00 +28°C° 0 mm 2 mps 730 mmHg 67%
    18:00 +26°C° 0 mm 1 mps 730 mmHg 73%
    19:00 +25°C° 0 mm 1 mps 731 mmHg 78%
    20:00 +25°C° 0 mm 1 mps 731 mmHg 79%
    21:00 +24°C° 0 mm 1 mps 731 mmHg 81%
    22:00 +24°C° 0 mm 1 mps 731 mmHg 82%
    23:00 +24°C° 0 mm 1 mps 731 mmHg 85%

    Day after tomorrow, 24 November, Sunday

    Time Temperature Precipitation Wind Pressure Humidity
    00:00 +24°C° 0 mm 1 mps 731 mmHg 87%
    01:00 +24°C° 0 mm 1 mps 731 mmHg 90%
    02:00 +23°C° 0 mm 1 mps 730 mmHg 91%
    03:00 +23°C° 0 mm 1 mps 730 mmHg 92%
    04:00 +23°C° 0 mm 1 mps 730 mmHg 93%
    05:00 +22°C° 0 mm 0 mps 731 mmHg 91%
    06:00 +22°C° 0 mm 0 mps 731 mmHg 88%
    07:00 +22°C° 0 mm 0 mps 732 mmHg 86%
    08:00 +26°C° 0 mm 1 mps 732 mmHg 77%
    09:00 +28°C° 0 mm 1 mps 732 mmHg 69%
    10:00 +30°C° 0 mm 1 mps 732 mmHg 60%
    11:00 +31°C° 0 mm 1 mps 731 mmHg 57%
    12:00 +32°C° 0 mm 1 mps 731 mmHg 54%
    13:00 +33°C° 0 mm 1 mps 730 mmHg 51%
    14:00 +32°C° 0 mm 1 mps 730 mmHg 56%
    15:00 +31°C° 0 mm 1 mps 729 mmHg 60%
    16:00 +30°C° 0 mm 1 mps 729 mmHg 65%
    17:00 +29°C° 0.1 mm 1 mps 729 mmHg 72%
    18:00 +28°C° 0.1 mm 1 mps 730 mmHg 78%
    19:00 +26°C° 0.1 mm 1 mps 730 mmHg 84%
    20:00 +26°C° 0 mm 1 mps 730 mmHg 85%
    21:00 +25°C° 0 mm 1 mps 730 mmHg 86%
    22:00 +25°C° 0 mm 1 mps 731 mmHg 87%
    23:00 +24°C° 0 mm 1 mps 731 mmHg 87%

    25 November, Monday

    Time Temperature Precipitation Wind Pressure Humidity
    00:00 +24°C° 0 mm 1 mps 730 mmHg 87%
    01:00 +24°C° 0 mm 1 mps 730 mmHg 87%
    02:00 +24°C° 0 mm 1 mps 730 mmHg 87%
    03:00 +23°C° 0 mm 1 mps 729 mmHg 87%
    04:00 +21°C° 0 mm 0 mps 729 mmHg 86%
    05:00 +24°C° 0 mm 1 mps 730 mmHg 84%
    06:00 +24°C° 0 mm 1 mps 730 mmHg 82%
    07:00 +25°C° 0 mm 1 mps 731 mmHg 80%
    08:00 +27°C° 0 mm 1 mps 731 mmHg 71%
    09:00 +29°C° 0 mm 1 mps 731 mmHg 61%
    10:00 +32°C° 0 mm 1 mps 731 mmHg 52%
    11:00 +33°C° 0 mm 1 mps 730 mmHg 48%
    12:00 +34°C° 0 mm 1 mps 730 mmHg 44%
    13:00 +35°C° 0 mm 1 mps 729 mmHg 41%
    14:00 +34°C° 0 mm 1 mps 729 mmHg 44%
    15:00 +34°C° 0 mm 1 mps 728 mmHg 47%
    16:00 +33°C° 0 mm 1 mps 728 mmHg 49%
    17:00 +31°C° 0 mm 1 mps 728 mmHg 55%
    18:00 +27°C° 0 mm 0 mps 728 mmHg 60%
    19:00 +25°C° 0 mm 0 mps 728 mmHg 65%
    20:00 +25°C° 0 mm 0 mps 729 mmHg 67%
    21:00 +27°C° 0 mm 1 mps 730 mmHg 68%
    22:00 +26°C° 0 mm 1 mps 730 mmHg 70%
    23:00 +25°C° 0 mm 1 mps 730 mmHg 73%

    26 November, Tuesday

    Time Temperature Precipitation Wind Pressure Humidity
    00:00 +25°C° 0 mm 1 mps 730 mmHg 76%
    01:00 +24°C° 0 mm 1 mps 729 mmHg 79%
    02:00 +22°C° 0 mm 0 mps 729 mmHg 80%
    03:00 +22°C° 0 mm 0 mps 729 mmHg 82%
    04:00 +21°C° 0 mm 0 mps 729 mmHg 84%
    05:00 +22°C° 0 mm 0 mps 730 mmHg 81%
    06:00 +23°C° 0 mm 0 mps 730 mmHg 78%
    07:00 +24°C° 0 mm 0 mps 730 mmHg 75%
    08:00 +26°C° 0 mm 0 mps 731 mmHg 67%
    09:00 +31°C° 0 mm 1 mps 731 mmHg 59%
    10:00 +33°C° 0 mm 1 mps 731 mmHg 50%
    11:00 +34°C° 0 mm 1 mps 730 mmHg 47%
    12:00 +35°C° 0 mm 1 mps 729 mmHg 44%
    13:00 +36°C° 0 mm 1 mps 728 mmHg 41%
    14:00 +34°C° 0.1 mm 1 mps 727 mmHg 47%
    15:00 +33°C° 0.1 mm 1 mps 727 mmHg 53%
    16:00 +29°C° 0.1 mm 0 mps 727 mmHg 60%
    17:00 +28°C° 0.2 mm 0 mps 727 mmHg 65%
    18:00 +27°C° 0.2 mm 0 mps 727 mmHg 70%
    19:00 +25°C° 0.2 mm 0 mps 727 mmHg 75%
    20:00 +25°C° 0 mm 0 mps 728 mmHg 76%
    21:00 +24°C° 0 mm 0 mps 729 mmHg 77%
    22:00 +24°C° 0 mm 0 mps 729 mmHg 79%
    23:00 +23°C° 0.1 mm 0 mps 729 mmHg 81%

    27 November, Wednesday

    Time Temperature Precipitation Wind Pressure Humidity
    00:00 +23°C° 0.1 mm 0 mps 729 mmHg 84%
    01:00 +22°C° 0.1 mm 0 mps 729 mmHg 86%
    02:00 +22°C° 0.3 mm 0 mps 728 mmHg 89%
    03:00 +22°C° 0.3 mm 0 mps 728 mmHg 91%
    04:00 +22°C° 0.3 mm 0 mps 728 mmHg 93%
    05:00 +24°C° 0.6 mm 1 mps 729 mmHg 94%
    06:00 +24°C° 0.6 mm 1 mps 729 mmHg 94%
    07:00 +25°C° 0.6 mm 1 mps 730 mmHg 94%
    08:00 +27°C° 0.1 mm 1 mps 730 mmHg 83%
    09:00 +30°C° 0.1 mm 1 mps 730 mmHg 71%
    10:00 +31°C° 0.1 mm 0 mps 730 mmHg 59%
    11:00 +32°C° 0.4 mm 0 mps 730 mmHg 55%
    12:00 +32°C° 0.4 mm 0 mps 729 mmHg 52%
    13:00 +35°C° 0.4 mm 1 mps 728 mmHg 48%
    14:00 +32°C° 0.7 mm 1 mps 727 mmHg 59%
    15:00 +30°C° 0.7 mm 1 mps 727 mmHg 70%
    16:00 +27°C° 0.7 mm 1 mps 726 mmHg 81%
    17:00 +27°C° 0.9 mm 1 mps 727 mmHg 85%
    18:00 +26°C° 0.9 mm 1 mps 727 mmHg 88%
    19:00 +25°C° 0.9 mm 1 mps 728 mmHg 92%
    20:00 +25°C° 0.4 mm 1 mps 728 mmHg 93%
    21:00 +25°C° 0.4 mm 1 mps 729 mmHg 94%
    22:00 +25°C° 0.4 mm 1 mps 730 mmHg 95%
    23:00 +24°C° 0.1 mm 1 mps 729 mmHg 95%
    Show more